Hurricane Symbol View the latest observations near Atlantic Potential Tropical Cyclone One.

Station TLVT2 - 8775285 - Tule Lake Visibility, TX Image indicating link to RSS feed of recent meteorological observations for station TLVT2


Conditions at TLVT2 as of
(4:54 pm CDT)
2154 GMT on 06/17/2024:
     

Click on the graph icon in the table below to see a time series plot of the last five days of that observation.

5-day plot - Atmospheric Pressure Atmospheric Pressure (PRES):29.72 in
5-day plot - Visibility Visibility (VIS): 5.9 nmi
NOS Water Level Observation Network Water Level
Previous observations
TIME
(CDT)
5-day plot - Wind Direction
WDIR
 
5-day plot - Wind Speed
WSPD
kts
5-day plot - Wind Gust
GST
kts
5-day plot - Wave Height
WVHT
ft
5-day plot - Dominant Wave Period
DPD
sec
5-day plot - Average Wave Period
APD
sec
5-day plot - Mean Wave Direction
MWD
 
5-day plot - Atmospheric Pressure
PRES
in
5-day plot - Pressure Tendency
PTDY
in
5-day plot - Air Temperature
ATMP
°F
5-day plot - Water Temperature
WTMP
°F
5-day plot - Dew Point
DEWP
°F
5-day plot - Salinity
SAL
psu
5-day plot - Visibility
VIS
nmi
5-day plot - Tide (above MLLW)
TIDE
ft
2024-06-17 04:48 pm-------29.72----- 5.9-
2024-06-17 04:42 pm-------29.72----- 5.9-
2024-06-17 04:36 pm-------29.72----- 5.9-
2024-06-17 04:30 pm-------29.72- 88.2- 79.9- 5.9-
2024-06-17 04:24 pm-------29.72- 88.2- 80.1- 5.9-
2024-06-17 04:18 pm--------- 88.0- 80.2- 5.9-
2024-06-17 04:12 pm--------- 87.3- 80.2- 5.9-
2024-06-17 04:06 pm--------- 86.2- 80.6- 5.9-
2024-06-17 04:00 pm-------29.72-0.02 85.6- 80.1- 5.9-
2024-06-17 03:54 pm-------29.72- 85.8- 81.3- 5.9-
2024-06-17 03:48 pm-------29.72- 86.0- 81.0- 5.9-
2024-06-17 03:42 pm-------29.72- 87.4- 78.8- 5.9-
2024-06-17 03:36 pm-------29.73- 88.3- 79.9- 5.9-
2024-06-17 03:30 pm-------29.72- 88.5- 79.7- 5.9-
2024-06-17 03:24 pm-------29.72- 88.2- 79.0- 5.9-
2024-06-17 03:18 pm-------29.72- 88.5- 80.1- 5.9-
2024-06-17 03:12 pm-------29.72- 88.7- 79.5- 5.9-
2024-06-17 03:06 pm-------29.72- 88.7- 79.5- 5.9-
2024-06-17 03:00 pm-------29.73-0.02 88.9- 79.3- 5.9-
2024-06-17 02:54 pm-------29.73- 88.2- 79.0- 5.9-
2024-06-17 02:48 pm-------29.73- 88.0- 79.2- 5.9-
2024-06-17 02:42 pm-------29.73- 88.3- 79.9- 5.9-
2024-06-17 02:36 pm-------29.74- 89.2- 79.9- 5.9-
2024-06-17 02:30 pm-------29.74- 88.7- 79.5- 5.9-
2024-06-17 02:24 pm-------29.73- 89.1- 79.7- 5.9-
2024-06-17 02:18 pm-------29.74- 89.2- 79.2- 5.9-
2024-06-17 02:12 pm-------29.74- 88.9- 79.0- 5.9-
2024-06-17 02:06 pm-------29.74- 88.9- 79.2- 5.9-
2024-06-17 02:00 pm-------29.74-0.01 89.2- 79.3- 5.9-
2024-06-17 01:54 pm-------29.74- 88.7- 78.4- 5.9-
2024-06-17 01:48 pm-------29.74- 88.3- 78.8- 5.9-
2024-06-17 01:42 pm-------29.74- 89.1- 79.2- 5.9-
2024-06-17 01:36 pm-------29.74- 88.5- 77.5- 5.9-
2024-06-17 01:30 pm-------29.74- 89.1- 78.4- 5.9-
2024-06-17 01:24 pm-------29.74- 88.7- 78.6- 5.9-
2024-06-17 01:18 pm-------29.74- 88.7- 79.3- 5.9-
2024-06-17 01:12 pm-------29.74- 89.2- 79.5- 5.9-
2024-06-17 01:06 pm-------29.75- 88.5- 78.4- 5.9-
2024-06-17 01:00 pm-------29.74-0.01 88.7- 79.7- 5.9-
2024-06-17 12:54 pm-------29.75- 88.7- 78.4- 5.9-
2024-06-17 12:48 pm-------29.75- 89.1- 78.8- 5.9-
2024-06-17 12:42 pm-------29.75- 88.7- 78.3- 5.9-
2024-06-17 12:36 pm-------29.74- 89.1- 79.3- 5.9-
2024-06-17 12:30 pm-------29.74- 88.5- 78.8- 5.9-
2024-06-17 12:24 pm-------29.74- 88.5- 78.6- 5.9-
2024-06-17 12:18 pm-------29.75- 88.3- 79.0- 5.9-
2024-06-17 12:12 pm-------29.75- 88.7- 79.7- 5.9-
2024-06-17 12:06 pm-------29.75- 88.3- 79.5- 5.9-
2024-06-17 12:00 pm-------29.75+0.00 88.2- 79.3- 5.9-
2024-06-17 11:54 am-------29.75- 88.0- 79.7- 5.9-
2024-06-17 11:48 am-------29.75- 88.2- 79.2- 5.9-
2024-06-17 11:42 am-------29.75- 88.3- 79.7- 5.9-
2024-06-17 11:36 am-------29.75- 88.9- 79.0- 5.9-
2024-06-17 11:30 am-------29.75- 88.9- 78.1- 5.9-
2024-06-17 11:24 am-------29.75- 88.7- 78.3- 5.9-
2024-06-17 11:18 am-------29.75- 88.3- 78.8- 5.9-
2024-06-17 11:12 am-------29.75- 88.3- 79.2- 5.9-
2024-06-17 11:06 am-------29.75- 88.9- 79.3- 5.9-
2024-06-17 11:00 am-------29.75+0.01 87.8- 79.2- 5.9-
2024-06-17 10:54 am-------29.75- 87.8- 79.3- 5.9-
2024-06-17 10:48 am-------29.75- 88.0- 79.7- 5.9-
2024-06-17 10:42 am-------29.75- 87.8- 79.7- 5.9-
2024-06-17 10:36 am-------29.75- 87.3- 79.9- 5.9-
2024-06-17 10:30 am-------29.75----- 5.9-
2024-06-17 10:24 am-------29.75----- 5.9-
2024-06-17 10:18 am-------29.75- 87.1- 78.6- 5.9-
2024-06-17 10:12 am-------29.75- 87.4- 78.8- 5.9-
2024-06-17 10:06 am-------29.75- 87.4- 78.4- 5.9-
2024-06-17 10:00 am-------29.75+0.02 87.4- 78.4- 5.9-
2024-06-17 09:54 am-------29.75- 87.3- 77.5- 5.9-
2024-06-17 09:48 am-------29.75- 87.6- 76.8- 5.9-
2024-06-17 09:42 am-------29.75- 87.4- 77.9- 5.9-
2024-06-17 09:36 am-------29.75- 87.8- 78.3- 5.9-
2024-06-17 09:30 am-------29.75- 87.6- 78.8- 5.9-
2024-06-17 09:24 am-------29.75- 88.0- 78.8- 5.9-
2024-06-17 09:18 am-------29.75- 87.4- 79.0- 5.9-
2024-06-17 09:12 am-------29.75- 87.1- 78.3- 5.9-
2024-06-17 09:06 am-------29.75- 87.1- 77.5- 5.9-
2024-06-17 09:00 am-------29.75+0.02 86.7- 78.8- 5.9-
2024-06-17 08:54 am-------29.75- 86.9- 79.3- 5.9-
2024-06-17 08:48 am-------29.75- 86.7- 79.2- 5.9-
2024-06-17 08:42 am-------29.75- 86.4- 79.0- 5.9-
2024-06-17 08:36 am-------29.75- 86.4- 78.8- 5.9-
2024-06-17 08:30 am-------29.75- 86.5- 78.8- 5.9-
2024-06-17 08:24 am-------29.75- 86.4- 78.6- 5.9-
2024-06-17 08:18 am-------29.74- 86.5- 78.6- 5.9-
2024-06-17 08:12 am-------29.74- 86.7- 80.1- 5.9-
2024-06-17 08:06 am-------29.74- 86.4- 80.1- 5.9-
2024-06-17 08:00 am-------29.74+0.01 86.0- 79.5- 5.9-
2024-06-17 07:54 am-------29.74- 86.0- 79.5- 5.9-
2024-06-17 07:48 am-------29.74- 85.8- 79.3- 5.9-
2024-06-17 07:42 am-------29.74- 85.5- 79.2- 5.9-
2024-06-17 07:36 am-------29.73- 85.3- 79.0- 5.9-
2024-06-17 07:30 am-------29.73- 85.1- 79.0- 5.9-
2024-06-17 07:24 am-------29.73- 85.1- 79.2- 5.9-
2024-06-17 07:18 am-------29.73- 84.7- 79.0- 5.9-
2024-06-17 07:12 am-------29.73- 84.7- 79.3- 5.9-
2024-06-17 07:06 am-------29.73- 84.7- 79.3- 5.9-
2024-06-17 07:00 am-------29.73-0.01 84.7- 79.3- 5.9-
2024-06-17 06:54 am-------29.72- 84.7- 79.5- 5.9-
2024-06-17 06:48 am-------29.73- 84.6- 79.3- 5.9-
2024-06-17 06:42 am-------29.73- 84.6- 79.3- 5.9-
2024-06-17 06:36 am-------29.72- 84.4- 79.2- 5.9-
2024-06-17 06:30 am-------29.72- 84.6- 79.5- 5.9-
2024-06-17 06:24 am-------29.72- 84.7- 79.9- 5.9-
2024-06-17 06:18 am-------29.72- 84.6- 79.5- 5.9-
2024-06-17 06:12 am-------29.72- 84.4- 79.5- 5.9-
2024-06-17 06:06 am-------29.72- 84.6- 79.9- 5.9-
2024-06-17 06:00 am-------29.72-0.01 84.6- 79.9- 5.9-
2024-06-17 05:54 am-------29.72- 84.4- 79.7- 5.9-
2024-06-17 05:48 am-------29.73- 84.2- 79.7- 5.9-
2024-06-17 05:42 am-------29.73- 84.2- 79.7- 5.9-
2024-06-17 05:36 am-------29.72- 84.2- 79.7- 5.9-
2024-06-17 05:30 am-------29.73- 84.2- 79.7- 5.9-
2024-06-17 05:24 am-------29.73- 84.2- 79.7- 5.9-
2024-06-17 05:18 am-------29.73- 84.2- 79.7- 5.9-
2024-06-17 05:12 am-------29.73- 84.0- 79.5- 5.9-
2024-06-17 05:06 am-------29.73- 84.2- 79.9- 5.9-
2024-06-17 05:00 am-------29.73-0.02 84.4- 79.7- 5.9-
2024-06-17 04:54 am-------29.73- 84.4- 79.2- 5.9-
2024-06-17 04:48 am-------29.73- 84.7- 79.3- 5.9-
2024-06-17 04:42 am-------29.73- 84.9- 79.0- 5.9-
2024-06-17 04:36 am-------29.73- 84.7- 78.8- 5.9-
2024-06-17 04:30 am-------29.73- 84.9- 79.0- 5.9-
2024-06-17 04:24 am-------29.73- 84.9- 78.8- 5.9-
2024-06-17 04:18 am-------29.73- 84.9- 78.8- 5.9-
2024-06-17 04:12 am-------29.73- 85.1- 78.4- 5.9-
2024-06-17 04:06 am-------29.74- 85.5- 78.3- 5.9-
2024-06-17 04:00 am-------29.74-0.04 85.5- 77.9- 5.9-
2024-06-17 03:54 am-------29.74- 85.6- 77.9- 5.9-
2024-06-17 03:48 am-------29.74- 85.6- 77.5- 5.9-
2024-06-17 03:42 am-------29.74- 85.6- 77.2- 5.9-
2024-06-17 03:36 am-------29.74- 85.6- 77.2- 5.9-
2024-06-17 03:30 am-------29.74- 85.6- 77.0- 5.9-
2024-06-17 03:24 am-------29.74- 85.8- 77.4- 5.9-
2024-06-17 03:18 am-------29.74- 85.6- 77.2- 5.9-
2024-06-17 03:12 am-------29.74- 85.8- 77.5- 5.9-
2024-06-17 03:06 am-------29.74- 85.8- 77.9- 5.9-
2024-06-17 03:00 am-------29.74-0.03 85.8- 77.7- 5.9-
2024-06-17 02:54 am-------29.74- 85.8- 77.7- 5.9-
2024-06-17 02:48 am-------29.75- 85.8- 77.9- 5.9-
2024-06-17 02:42 am-------29.75- 85.8- 78.3- 5.9-
2024-06-17 02:36 am-------29.75- 85.8- 78.4- 5.9-
2024-06-17 02:30 am-------29.75- 85.8- 78.4- 5.9-
2024-06-17 02:24 am-------29.75- 85.8- 78.3- 5.9-
2024-06-17 02:18 am-------29.75- 86.0- 78.4- 5.9-
2024-06-17 02:12 am-------29.75- 86.0- 78.1- 5.9-
2024-06-17 02:06 am-------29.75- 86.0- 78.1- 5.9-
2024-06-17 02:00 am-------29.75-0.01 86.0- 77.9- 5.9-
2024-06-17 01:54 am-------29.75- 86.2- 78.1- 5.9-
2024-06-17 01:48 am-------29.75- 86.4- 78.1- 5.9-
2024-06-17 01:42 am-------29.75- 86.0- 77.7- 5.9-
2024-06-17 01:36 am-------29.76- 86.2- 79.0- 5.9-
2024-06-17 01:30 am-------29.76- 86.2- 78.8- 5.9-
2024-06-17 01:24 am-------29.77- 86.2- 78.6- 5.9-
2024-06-17 01:18 am-------29.77- 86.4- 78.6- 5.9-
2024-06-17 01:12 am-------29.77- 86.2- 78.6- 5.9-
2024-06-17 01:06 am-------29.77- 86.2- 79.0- 5.9-
2024-06-17 01:00 am-------29.77+0.01 86.4- 79.3- 5.9-
2024-06-17 12:54 am-------29.77- 86.4- 79.3- 5.9-
2024-06-17 12:48 am-------29.77- 86.5- 79.3- 5.9-
2024-06-17 12:42 am-------29.77- 86.4- 79.2- 5.9-
2024-06-17 12:36 am-------29.77- 86.4- 79.3- 5.9-
2024-06-17 12:30 am-------29.77- 86.4- 79.2- 5.9-
2024-06-17 12:24 am-------29.77- 86.4- 78.8- 5.9-
2024-06-17 12:18 am--------- 86.5- 78.8- 5.9-
2024-06-17 12:12 am--------- 86.4- 79.0- 5.9-
2024-06-17 12:06 am--------- 86.5- 79.2- 5.9-
2024-06-17 12:00 am-------29.77+0.03---- 5.9-
2024-06-16 11:54 pm-------29.77----- 5.9-
2024-06-16 11:48 pm-------29.77----- 5.9-
2024-06-16 11:42 pm-------29.78----- 5.9-
2024-06-16 11:36 pm-------29.78----- 5.9-
2024-06-16 11:30 pm-------29.78----- 5.9-
2024-06-16 11:24 pm-------29.78----- 5.9-
2024-06-16 11:18 pm-------29.78- 86.7- 79.9- 5.9-
2024-06-16 11:12 pm-------29.77- 86.7- 79.5- 5.9-
2024-06-16 11:06 pm-------29.77- 86.9- 79.2- 5.9-
2024-06-16 11:00 pm-------29.77+0.04 86.5- 79.9- 5.9-
2024-06-16 10:54 pm-------29.77- 86.4- 79.7- 5.9-
2024-06-16 10:48 pm-------29.77----- 5.9-
2024-06-16 10:42 pm-------29.77----- 5.9-
2024-06-16 10:36 pm-------29.77----- 5.9-
2024-06-16 10:30 pm-------29.77- 86.9- 79.9- 5.9-
2024-06-16 10:24 pm-------29.77- 87.1- 80.1- 5.9-
2024-06-16 10:18 pm-------29.76- 87.3- 79.7- 5.9-
2024-06-16 10:12 pm-------29.76- 87.4- 78.8- 5.9-
2024-06-16 10:06 pm-------29.76- 87.1- 78.8- 5.9-
2024-06-16 10:00 pm-------29.76+0.03 87.3- 79.9- 5.9-
2024-06-16 09:54 pm-------29.75- 87.3- 79.2- 5.9-
2024-06-16 09:48 pm-------29.75- 87.3- 78.8- 5.9-
2024-06-16 09:42 pm-------29.75- 87.1- 79.0- 5.9-
2024-06-16 09:36 pm-------29.75- 87.1- 79.2- 5.9-
2024-06-16 09:30 pm-------29.75- 87.3- 79.7- 5.9-
2024-06-16 09:24 pm-------29.74- 87.3- 79.7- 5.9-
2024-06-16 09:18 pm-------29.74- 87.3- 79.9- 5.9-
2024-06-16 09:12 pm-------29.74- 87.4- 80.1- 5.9-
2024-06-16 09:06 pm-------29.75- 87.3- 79.7- 5.9-
2024-06-16 09:00 pm-------29.74+0.01 87.4- 79.7- 5.9-
2024-06-16 08:54 pm-------29.74- 87.4- 79.7- 5.9-
2024-06-16 08:48 pm-------29.74- 87.1- 79.7- 5.9-
2024-06-16 08:42 pm-------29.74- 87.1- 79.2- 5.9-
2024-06-16 08:36 pm-------29.74- 87.4- 80.2- 5.9-
2024-06-16 08:30 pm--------- 87.3- 79.5- 5.9-
2024-06-16 08:24 pm--------- 87.3- 79.3- 5.9-
2024-06-16 08:18 pm--------- 87.1- 79.3- 5.9-
2024-06-16 08:12 pm--------- 87.3- 79.5- 5.9-
2024-06-16 08:06 pm--------- 87.4- 79.5- 5.9-
2024-06-16 08:00 pm-------29.73+0.00---- 5.9-
2024-06-16 07:54 pm-------29.73----- 5.9-
2024-06-16 07:48 pm-------29.73----- 5.9-
2024-06-16 07:42 pm-------29.73----- 5.9-
2024-06-16 07:36 pm-------29.73----- 5.9-
2024-06-16 07:30 pm-------29.73----- 5.9-
2024-06-16 07:24 pm-------29.73----- 5.9-
2024-06-16 07:18 pm-------29.73- 87.8- 79.3- 5.9-
2024-06-16 07:12 pm-------29.73- 87.8- 79.7- 5.9-
2024-06-16 07:06 pm-------29.73- 87.6- 79.3- 5.9-
2024-06-16 07:00 pm-------29.73-0.01 87.8- 79.7- 5.9-
2024-06-16 06:54 pm-------29.73- 88.0- 79.7- 5.9-
2024-06-16 06:48 pm-------29.73- 87.4- 79.3- 5.9-
2024-06-16 06:42 pm-------29.73- 88.0- 79.9- 5.9-
2024-06-16 06:36 pm-------29.73- 88.0- 79.3- 5.9-
2024-06-16 06:30 pm-------29.73- 88.5- 80.1- 5.9-
2024-06-16 06:24 pm-------29.73- 88.3- 79.7- 5.9-
2024-06-16 06:18 pm-------29.73- 88.5- 79.7- 5.9-
2024-06-16 06:12 pm-------29.72- 88.3- 79.2- 5.9-
2024-06-16 06:06 pm-------29.72- 88.3- 78.8- 5.9-
2024-06-16 06:00 pm-------29.73-0.03---- 5.9-
2024-06-16 05:54 pm-------29.73----- 5.9-
2024-06-16 05:48 pm-------29.73- 89.1- 79.9- 5.9-
2024-06-16 05:42 pm-------29.73- 88.9- 79.2- 5.9-
2024-06-16 05:36 pm-------29.73- 88.3- 78.6- 5.9-
2024-06-16 05:30 pm--------- 88.3--- 5.9-
2024-06-16 05:24 pm--------- 88.7--- 5.9-
2024-06-16 05:18 pm-------29.73- 88.9- 80.2- 5.9-
2024-06-16 05:12 pm-------29.73- 88.7- 80.1- 5.9-
2024-06-16 05:06 pm-------29.73- 88.5- 79.5- 5.9-
2024-06-16 05:00 pm-------29.73-0.05 89.1- 80.2- 5.9-
2024-06-16 04:54 pm-------29.73- 88.9- 79.7- 5.9-